GW6485 Weather Reports


time (UTC)temp
F
wind
direction
speed
knots
gust
knots
rain 1hr
in
rain 24hr
in
rain mn
in
humidity
%
barometer
mb
20260506103929 55 75 2.6 2.6 0.00 0.00 0.00 67 1006.8
20260506103426 55 78 2.6 2.6 0.00 0.00 0.00 69 1006.7
20260506102923 54 78 0.9 1.7 0.00 0.00 0.00 71 1006.6
20260506102421 54 43 0.9 1.7 0.00 0.00 0.00 73 1006.7
20260506101918 54 49 0.9 0.9 0.00 0.00 0.00 71 1006.6
20260506101414 54 69 0.0 1.7 0.00 0.00 0.00 71 1006.5
20260506100911 55 35 0.9 1.7 0.00 0.00 0.00 70 1006.2
20260506100410 56 135 0.0 0.9 0.00 0.00 0.00 69 1006.7
20260506095908 56 135 0.0 1.7 0.00 0.00 0.00 68 1006.2
20260506095406 57 37 1.7 1.7 0.00 0.00 0.00 69 1006.2
20260506094902 54 170 0.0 1.7 0.00 0.00 0.00 78 1006.2
20260506094401 54 147 1.7 1.7 0.00 0.00 0.00 76 1006.2
20260506093858 54 37 0.9 1.7 0.00 0.00 0.00 76 1006.3
20260506093355 55 61 0.0 1.7 0.00 0.00 0.00 75 1006.1
20260506092853 54 39 0.9 1.7 0.00 0.00 0.00 76 1006.2
20260506092351 55 23 1.7 1.7 0.00 0.00 0.00 76 1006.2
20260506091847 55 24 1.7 1.7 0.00 0.00 0.00 74 1006.1
20260506091345 55 37 0.9 1.7 0.00 0.00 0.00 73 1006.2
20260506090842 55 28 1.7 1.7 0.00 0.00 0.00 72 1006.2
20260506090340 56 56 0.9 1.7 0.00 0.00 0.00 71 1006.0
20260506085836 56 52 0.0 0.9 0.00 0.00 0.00 68 1006.3
20260506085332 57 124 0.0 0.9 0.00 0.00 0.00 65 1006.1
20260506084829 58 120 0.0 1.7 0.00 0.00 0.00 62 1006.1
20260506084326 58 108 0.0 1.7 0.00 0.00 0.00 61 1006.2
20260506083822 58 125 1.7 1.7 0.00 0.00 0.00 62 1006.3
20260506083320 58 98 0.0 1.7 0.00 0.00 0.00 62 1006.5
20260506082818 59 125 0.9 2.6 0.00 0.00 0.00 62 1006.2
20260506082314 59 115 0.0 2.6 0.00 0.00 0.00 62 1006.2
20260506081810 59 53 1.7 1.7 0.00 0.00 0.00 63 1006.1
20260506081308 59 120 1.7 1.7 0.00 0.00 0.00 63 1006.3
20260506080806 59 112 1.7 1.7 0.00 0.00 0.00 63 1006.3
20260506080302 59 120 1.7 2.6 0.00 0.00 0.00 63 1006.5
20260506073246 59 79 1.7 2.6 0.00 0.00 0.00 64 1006.6
20260506072743 58 89 0.9 1.7 0.00 0.00 0.00 65 1006.6
20260506072240 59 95 0.0 1.7 0.00 0.00 0.00 64 1006.1
20260506071738 59 130 0.0 1.7 0.00 0.00 0.00 63 1006.6
20260506071236 60 153 0.0 2.6 0.00 0.00 0.00 62 1006.3
20260506070732 60 132 1.7 3.5 0.00 0.00 0.00 60 1006.5
20260506070229 60 87 1.7 2.6 0.00 0.00 0.00 60 1006.2
20260506062206 62 111 1.7 2.6 0.00 0.15 0.15 59 1006.3
20260506061702 62 85 1.7 3.5 0.00 0.15 0.15 59 1006.0
20260506061200 62 80 0.0 1.7 0.00 0.15 0.15 59 1006.2
20260506060659 62 109 0.9 2.6 0.00 0.15 0.15 59 1006.2
20260506060155 62 148 1.7 3.5 0.00 0.15 0.15 58 1006.1
20260506051127 64 102 3.5 3.5 0.00 0.15 0.15 54 1006.0
20260506050625 64 133 3.5 4.3 0.00 0.15 0.15 54 1005.8
20260506050122 64 92 0.0 2.6 0.00 0.15 0.15 54 1005.9
20260506045115 64 101 1.7 2.6 0.00 0.15 0.15 54 1005.6
20260506044613 64 149 0.9 3.5 0.00 0.15 0.15 54 1005.6
20260506044110 64 136 1.7 2.6 0.00 0.15 0.15 53 1005.6
20260506043607 65 129 2.6 3.5 0.00 0.15 0.15 52 1005.2
20260506043105 65 108 1.7 3.5 0.00 0.15 0.15 52 1005.6
20260506042604 65 127 1.7 5.2 0.00 0.15 0.15 52 1005.4
20260506042101 65 147 3.5 6.1 0.00 0.15 0.15 51 1005.3
20260506041600 65 139 4.3 7.8 0.00 0.15 0.15 50 1005.4
20260506041056 65 125 2.6 3.5 0.00 0.15 0.15 49 1005.2
20260506040554 65 107 1.7 3.5 0.00 0.15 0.15 49 1004.7
20260506040050 65 118 3.5 3.5 0.00 0.15 0.15 49 1004.7
20260506035547 65 81 0.9 3.5 0.00 0.15 0.15 49 1004.8
20260506035044 66 125 2.6 3.5 0.00 0.15 0.15 49 1004.4
20260506034541 66 130 1.7 2.6 0.00 0.15 0.15 48 1004.5
20260506034038 66 108 0.9 4.3 0.00 0.15 0.15 47 1004.3
20260506033535 66 82 1.7 4.3 0.00 0.15 0.15 47 1004.2
20260506033032 66 113 1.7 3.5 0.00 0.15 0.15 47 1004.3
20260506032530 66 235 1.7 2.6 0.00 0.15 0.15 46 1004.1
20260506032026 67 96 2.6 4.3 0.00 0.15 0.15 45 1004.1
20260506031524 67 305 0.9 2.6 0.00 0.15 0.15 43 1004.0
20260506031021 66 112 2.6 3.5 0.00 0.15 0.15 42 1003.9
20260506030519 67 50 0.0 3.5 0.00 0.15 0.15 40 1004.1
20260506030016 67 110 1.7 2.6 0.00 0.15 0.15 39 1003.8
20260506025513 67 13 0.0 2.6 0.00 0.15 0.15 39 1003.8
20260506025009 68 123 1.7 4.3 0.00 0.15 0.15 39 1003.7
20260506024506 68 103 1.7 3.5 0.00 0.15 0.15 38 1003.7
20260506024001 68 115 1.7 5.2 0.00 0.15 0.15 37 1003.7
20260506023458 68 129 2.6 4.3 0.00 0.15 0.15 36 1003.5
20260506022955 69 99 2.6 6.1 0.00 0.15 0.15 36 1003.4
20260506022453 69 58 1.7 5.2 0.00 0.15 0.15 35 1003.4
20260506021951 69 87 3.5 5.2 0.00 0.15 0.15 34 1003.2
20260506021448 69 111 2.6 7.8 0.00 0.15 0.15 33 1002.8
20260506020945 69 128 3.5 10.4 0.00 0.15 0.15 34 1002.8
20260506020442 69 149 2.6 7.0 0.00 0.15 0.15 34 1002.7
20260506015939 69 106 2.6 6.1 0.00 0.15 0.15 33 1002.7
20260506015437 69 159 4.3 7.0 0.00 0.15 0.15 33 1002.7
20260506014934 70 98 4.3 7.0 0.00 0.15 0.15 33 1002.6
20260506014431 70 126 4.3 12.2 0.00 0.15 0.15 33 1002.7
20260506013927 70 144 2.6 10.4 0.00 0.15 0.15 33 1002.7
20260506013425 70 119 4.3 7.0 0.00 0.15 0.15 33 1002.4
20260506012921 70 88 3.5 9.6 0.00 0.15 0.15 33 1002.5
20260506012418 70 177 1.7 7.0 0.00 0.15 0.15 35 1002.6
20260506011915 70 143 3.5 9.6 0.00 0.15 0.15 35 1002.6
20260506011412 71 107 6.1 8.7 0.00 0.15 0.15 35 1002.4
20260506010909 71 100 5.2 7.8 0.00 0.15 0.15 35 1002.7
20260506010408 71 128 7.8 8.7 0.00 0.15 0.15 36 1002.3
20260506005904 71 121 5.2 7.8 0.00 0.15 0.15 36 1002.5
20260506005402 71 112 3.5 9.6 0.00 0.15 0.15 35 1002.2
20260506004856 71 138 2.6 5.2 0.00 0.15 0.15 35 1002.1
20260506004355 72 33 1.7 5.2 0.00 0.15 0.15 33 1002.3
20260506003851 72 0 0.9 4.3 0.00 0.15 0.15 34 1002.2
20260506003347 72 86 2.6 5.2 0.00 0.15 0.15 32 1002.3
20260506002843 73 137 4.3 4.3 0.00 0.15 0.15 31 1002.1
20260506002340 75 54 2.6 4.3 0.00 0.15 0.15 30 1002.3
20260506001835 74 61 1.7 5.2 0.00 0.15 0.15 31 1002.2
20260506001333 74 125 4.3 7.8 0.00 0.15 0.15 30 1001.9
20260506000829 75 4 4.3 7.0 0.00 0.15 0.15 30 1002.1
20260506000329 76 7 3.5 3.5 0.00 0.15 0.15 29 1001.7
20260505235824 75 107 5.2 5.2 0.00 0.15 0.15 30 1002.0
20260505235321 75 36 3.5 4.3 0.00 0.15 0.15 30 1001.7
20260505234818 76 67 0.0 4.3 0.00 0.15 0.15 30 1001.9
20260505234316 76 108 1.7 3.5 0.00 0.15 0.15 30 1001.7
20260505233813 75 137 1.7 2.6 0.00 0.15 0.15 29 1002.0
20260505233311 75 184 1.7 5.2 0.00 0.15 0.15 28 1001.7
20260505232808 77 190 0.0 5.2 0.00 0.15 0.15 27 1001.9
20260505232306 77 115 3.5 5.2 0.00 0.15 0.15 28 1002.0
20260505231802 78 224 1.7 4.3 0.00 0.15 0.15 28 1001.7
20260505231300 78 131 1.7 5.2 0.00 0.15 0.15 27 1001.9
20260505230758 76 9 1.7 4.3 0.00 0.15 0.15 28 1001.7
20260505230254 76 3 1.7 7.0 0.00 0.15 0.15 29 1001.7
20260505225751 77 132 2.6 4.3 0.00 0.15 0.15 27 1001.9
20260505225248 76 174 2.6 4.3 0.00 0.15 0.15 28 1002.1
20260505224743 78 140 4.3 7.8 0.00 0.15 0.15 26 1002.0
20260505224241 78 338 1.7 3.5 0.00 0.15 0.15 28 1001.9
20260505223738 78 135 4.3 7.8 0.00 0.15 0.15 27 1002.1
20260505223235 78 1 3.5 7.0 0.00 0.15 0.15 30 1002.0
20260505222731 76 346 2.6 5.2 0.00 0.15 0.15 31 1002.0
20260505222227 76 50 0.0 3.5 0.00 0.15 0.15 34 1002.4
20260505221724 76 51 1.7 5.2 0.00 0.15 0.15 33 1002.0
20260505221221 76 318 1.7 2.6 0.00 0.15 0.15 32 1002.3
20260505220718 75 6 5.2 7.0 0.00 0.15 0.15 33 1002.1
20260505220216 78 99 3.5 7.0 0.00 0.15 0.15 32 1002.1
20260505215713 77 153 0.9 5.2 0.00 0.15 0.15 34 1002.2
20260505215211 73 82 1.7 5.2 0.00 0.15 0.15 36 1002.4
20260505214708 74 6 1.7 10.4 0.00 0.15 0.15 36 1002.5
20260505214206 74 127 3.5 7.0 0.00 0.15 0.15 34 1002.6
20260505213703 75 296 1.7 7.8 0.00 0.15 0.15 34 1002.6
20260505213200 74 11 4.3 5.2 0.00 0.15 0.15 34 1002.8
20260505212656 75 72 3.5 7.8 0.00 0.15 0.15 34 1002.8
20260505212153 77 129 1.7 5.2 0.00 0.15 0.15 33 1003.0
20260505211650 75 6 6.1 13.9 0.00 0.15 0.15 33 1002.9
20260505211148 77 55 0.9 4.3 0.00 0.15 0.15 34 1002.8
20260505210644 75 0 7.8 8.7 0.00 0.15 0.15 33 1002.8
20260505210141 76 16 3.5 9.6 0.00 0.15 0.15 34 1002.9
20260505205638 76 32 3.5 9.6 0.00 0.15 0.15 33 1002.9
20260505205137 76 358 4.3 12.2 0.00 0.15 0.15 33 1003.0
20260505204633 77 9 7.8 11.3 0.00 0.15 0.15 32 1002.9
20260505204131 76 353 0.9 9.6 0.00 0.15 0.15 34 1003.2
20260505203628 76 1 7.0 9.6 0.00 0.15 0.15 32 1003.2
20260505203125 75 352 7.0 10.4 0.00 0.15 0.15 32 1003.1
20260505202620 75 343 3.5 10.4 0.00 0.15 0.15 33 1003.1
20260505202116 76 14 10.4 11.3 0.00 0.15 0.15 32 1003.0
20260505201613 76 6 5.2 13.0 0.00 0.15 0.15 33 1003.2
20260505201111 76 13 4.3 15.6 0.00 0.15 0.15 34 1003.1
20260505200609 76 2 7.0 7.8 0.00 0.15 0.15 36 1003.0
20260505200105 76 180 2.6 7.8 0.00 0.15 0.15 33 1003.4
20260505195601 77 27 3.5 7.0 0.00 0.15 0.15 33 1003.4
20260505195059 76 333 3.5 10.4 0.00 0.15 0.15 35 1003.4
20260505194556 75 2 1.7 6.1 0.00 0.15 0.15 38 1003.5
20260505194052 75 18 3.5 14.8 0.00 0.15 0.15 37 1003.5
20260505193549 75 86 1.7 7.0 0.00 0.15 0.15 40 1003.4
20260505193046 74 5 6.1 15.6 0.00 0.15 0.15 39 1003.6
20260505192545 75 42 4.3 11.3 0.00 0.15 0.15 40 1003.4
20260505192042 75 114 2.6 7.0 0.00 0.15 0.15 43 1003.4
20260505191540 74 353 2.6 9.6 0.00 0.15 0.15 45 1003.5
20260505191037 74 51 2.6 8.7 0.00 0.15 0.15 46 1003.6
20260505190532 75 253 2.6 5.2 0.00 0.15 0.15 46 1003.5
20260505190028 74 0 2.6 7.0 0.00 0.15 0.15 47 1003.5
20260505185525 74 125 1.7 6.1 0.00 0.15 0.15 48 1003.7
20260505185021 73 6 8.7 13.0 0.00 0.15 0.15 48 1003.8
20260505184518 73 11 7.0 10.4 0.00 0.15 0.15 49 1004.1
20260505184015 73 40 2.6 9.6 0.00 0.15 0.15 52 1003.9
20260505183512 73 2 0.9 3.5 0.00 0.15 0.15 54 1003.9
20260505183009 72 6 1.7 7.0 0.00 0.15 0.15 53 1004.3
20260505182506 72 72 1.7 3.5 0.00 0.15 0.15 53 1004.1
20260505182002 73 99 3.5 4.3 0.00 0.15 0.15 51 1004.3
20260505181459 71 191 0.0 2.6 0.00 0.15 0.15 52 1004.0
20260505180956 73 331 2.6 15.6 0.00 0.15 0.15 54 1004.3
20260505180452 71 20 2.6 5.2 0.00 0.15 0.15 55 1004.3
20260505175949 70 32 1.7 3.5 0.00 0.15 0.15 56 1004.4
20260505175445 70 244 1.7 3.5 0.00 0.15 0.15 53 1004.8
20260505174942 68 99 2.6 3.5 0.00 0.15 0.15 61 1004.6
20260505174439 68 54 2.6 4.3 0.00 0.15 0.15 64 1004.4
20260505173935 68 148 2.6 3.5 0.00 0.15 0.15 60 1004.7
20260505173431 69 122 0.0 3.5 0.00 0.15 0.15 60 1004.7
20260505172929 67 29 3.5 3.5 0.00 0.15 0.15 62 1004.7
20260505172427 66 138 1.7 1.7 0.00 0.15 0.15 65 1004.8
20260505171926 66 121 3.5 3.5 0.00 0.15 0.15 65 1005.0
20260505171423 66 75 1.7 3.5 0.00 0.15 0.15 67 1004.6
20260505170920 66 119 1.7 3.5 0.00 0.15 0.15 65 1004.8
20260505170417 67 222 1.7 3.5 0.00 0.15 0.15 65 1004.8
20260505165912 66 20 1.7 2.6 0.00 0.15 0.15 64 1004.6
20260505165408 66 214 1.7 3.5 0.00 0.15 0.15 66 1004.8
20260505164904 66 147 0.0 1.7 0.00 0.15 0.15 65 1004.6
20260505164401 65 214 0.9 1.7 0.00 0.15 0.15 67 1004.7
20260505163859 65 108 1.7 1.7 0.00 0.15 0.15 66 1004.7
20260505163358 65 151 0.9 1.7 0.00 0.15 0.15 66 1004.6
20260505162856 65 106 0.0 2.6 0.00 0.15 0.15 68 1004.5
20260505162351 64 268 0.0 3.5 0.00 0.15 0.15 74 1004.7
20260505161848 64 166 0.9 1.7 0.00 0.15 0.15 76 1004.8
20260505161345 64 314 0.9 2.6 0.00 0.15 0.15 76 1004.8
20260505160843 63 100 0.9 2.6 0.00 0.15 0.15 75 1004.6
20260505160341 63 120 1.7 2.6 0.00 0.15 0.15 75 1005.1
20260505153320 64 130 1.7 3.5 0.00 0.15 0.15 79 1004.6
20260505152817 64 119 1.7 3.5 0.00 0.15 0.15 79 1004.8
20260505152314 63 124 1.7 3.5 0.00 0.15 0.15 79 1004.6
20260505151813 63 125 2.6 3.5 0.00 0.15 0.15 80 1004.4
20260505151311 63 125 1.7 2.6 0.00 0.15 0.15 83 1004.5
20260505150808 63 97 2.6 2.6 0.00 0.15 0.15 85 1004.6
20260505150305 62 52 0.9 1.7 0.00 0.15 0.15 85 1004.3
20260505140235 59 110 0.0 1.7 0.00 0.15 0.15 97 1004.2
20260505130158 58 356 0.9 1.7 0.00 0.15 0.15 98 1003.9
20260505124648 58 37 0.0 1.7 0.00 0.14 0.14 98 1003.5
20260505124145 58 69 0.9 1.7 0.00 0.14 0.14 98 1003.5
20260505123641 58 195 0.0 1.7 0.00 0.14 0.14 98 1003.2
20260505123138 58 131 0.0 1.7 0.00 0.14 0.14 98 1003.4
20260505122634 58 172 1.7 1.7 0.00 0.14 0.14 98 1003.4
20260505122132 58 180 0.0 1.7 0.00 0.14 0.14 98 1003.2
20260505121628 58 134 0.9 1.7 0.00 0.14 0.14 98 1003.5
20260505121125 58 161 0.9 1.7 0.00 0.14 0.14 98 1003.5
20260505120621 58 50 0.0 1.7 0.00 0.14 0.14 98 1003.4
20260505120118 58 280 1.7 2.6 0.00 0.14 0.14 98 1003.4
20260505115618 58 330 1.7 1.7 0.00 0.14 0.14 98 1003.0
20260505115115 58 346 1.7 2.6 0.00 0.14 0.14 98 1003.2
20260505114612 58 28 0.0 1.7 0.02 0.14 0.14 98 1003.1
20260505114109 58 304 0.0 2.6 0.00 0.14 0.14 98 1002.9
20260505113605 58 60 0.0 3.5 0.00 0.14 0.14 98 1002.9
20260505113101 58 298 0.9 3.5 0.00 0.14 0.14 98 1003.0
20260505112558 58 303 2.6 3.5 0.00 0.14 0.14 98 1003.2
20260505112056 58 346 2.6 3.5 0.02 0.14 0.14 98 1003.7
20260505111550 58 0 0.0 1.7 0.02 0.14 0.14 98 1003.4
20260505111046 58 16 1.7 3.5 0.00 0.13 0.13 98 1003.7
20260505110543 58 326 0.0 2.6 0.00 0.13 0.13 98 1003.5